GFSNE_250_spd_123.txt.gz
Wind_Speed
112 109 108 105 105 105 104 103 100 99 96 91 82 76 71 63 59 55 54 54 52 48 44 39 39 49 54 54 52 50 53 54 54 51 52 52 47 47
112 113 113 110 105 104 105 103 101 103 98 91 85 81 78 66 59 55 55 55 50 50 44 39 39 62 56 59 58 58 56 55 56 52 59 61 56 57
103 104 103 104 101 100 100 100 99 98 97 89 85 85 80 63 59 54 56 56 52 49 46 45 39 64 64 59 60 55 60 57 59 62 64 58 58 56
93 93 96 98 96 96 99 97 96 95 91 85 86 80 68 64 56 57 57 58 56 49 47 46 41 57 67 63 54 59 66 67 67 71 72 67 69 70
85 87 92 96 97 94 91 92 93 95 91 87 85 78 66 63 59 58 57 59 56 52 48 47 47 47 65 59 68 61 61 63 62 62 66 68 71 74
80 82 84 89 90 91 88 90 91 89 87 85 82 77 65 60 58 59 55 61 56 57 53 48 46 44 56 68 65 64 64 63 68 70 73 72 76 76
70 73 77 80 84 89 91 90 88 86 80 79 74 73 68 60 62 61 56 62 61 61 57 53 50 47 42 52 69 68 69 76 74 78 78 77 73 74
56 56 52 54 59 64 67 75 83 86 82 76 74 70 65 59 59 57 61 63 61 60 62 60 54 54 48 46 46 49 53 59 63 68 75 80 84 85
35 37 41 42 41 46 51 49 53 59 63 64 70 67 63 50 62 61 64 69 66 64 65 63 59 53 51 53 51 50 57 60 62 63 69 69 77 84
31 35 34 30 34 34 30 29 32 38 48 54 60 64 61 64 66 65 55 71 66 62 65 61 59 55 53 55 56 57 60 57 52 57 58 54 51 51
32 35 39 39 37 40 37 34 33 42 49 58 61 63 63 65 68 71 75 74 71 64 58 67 68 61 60 62 62 61 60 59 55 52 50 48 48 49
38 40 44 49 45 37 30 25 32 56 54 57 57 62 70 73 73 70 69 73 76 73 60 59 62 64 63 67 67 64 63 63 62 58 49 50 51 52
48 47 47 46 41 33 37 42 49 43 46 52 59 54 71 81 76 77 73 73 71 74 70 65 63 65 65 67 69 68 67 66 63 64 63 55 54 55
47 50 50 52 49 48 49 48 48 44 47 49 48 58 60 67 68 73 74 76 78 79 78 79 72 72 71 70 72 73 70 71 71 69 66 64 62 62
49 47 52 55 52 58 60 57 54 50 49 57 64 66 68 64 66 70 73 74 73 77 78 77 79 78 80 79 78 78 77 78 75 73 71 69 70 67
56 57 56 58 59 59 59 67 64 59 58 68 73 68 74 76 82 81 79 79 81 82 84 84 87 88 88 86 85 83 83 83 81 81 78 75 78 76
60 58 58 60 64 66 67 67 73 73 69 70 78 79 73 77 80 85 79 82 80 86 88 90 89 91 90 93 92 93 90 88 86 84 83 81 81 81
65 65 64 63 63 68 69 70 72 75 75 79 84 86 86 86 87 87 86 87 88 92 89 93 94 96 97 97 98 98 95 95 95 93 92 88 87 88
72 72 72 72 72 71 72 79 78 79 80 81 84 90 92 92 93 95 91 91 93 95 96 99 100 102 104 105 104 104 102 101 101 97 95 94 94 92
79 80 80 79 79 80 79 79 80 83 84 90 92 93 95 100 100 101 98 99 102 103 103 104 106 106 106 106 105 107 106 103 104 103 100 99 102 100
88 88 88 88 88 87 88 88 87 86 88 94 97 101 102 105 106 108 111 108 108 106 106 107 108 108 110 112 114 114 112 111 111 109 109 107 106 106
96 96 97 96 97 98 97 98 99 99 99 100 101 106 109 111 113 111 111 115 115 115 116 116 112 112 114 113 113 115 115 117 117 115 113 113 111 109
103 104 103 107 108 107 108 108 108 109 111 112 112 112 112 114 118 121 123 124 123 123 124 125 124 123 123 120 120 121 121 122 122 122 120 121 120 119

GFSNE_250_spd_129.txt.gz
Wind_Speed
104 107 104 102 101 96 90 89 86 74 71 77 73 76 75 74 70 71 71 70 66 68 66 69 70 73 70 73 74 70 60 50 46 40 38 46 43 47
104 110 106 107 106 101 99 99 93 87 86 87 88 89 83 80 80 78 77 81 80 80 84 84 81 78 78 75 80 70 58 49 48 46 50 49 56 53
103 108 108 111 110 104 106 106 101 96 96 98 98 97 93 93 92 93 91 91 91 92 89 85 83 80 81 78 81 68 55 53 54 48 51 57 63 62
96 102 106 112 111 110 108 114 109 111 110 108 108 105 107 103 97 94 96 95 96 93 95 91 84 80 82 83 79 69 58 55 57 55 51 61 57 60
88 94 102 108 115 111 112 115 119 123 122 118 116 116 116 112 107 103 105 105 102 102 98 88 86 81 84 82 76 70 60 56 59 54 52 59 53 55
80 88 96 102 106 116 117 115 119 120 120 118 120 116 114 112 110 106 108 108 106 105 100 93 94 87 84 80 72 65 54 56 61 59 55 65 66 62
64 72 82 94 99 104 115 117 117 116 114 114 112 111 109 109 107 105 106 103 101 101 98 93 87 85 78 78 70 62 60 58 62 62 58 64 73 72
60 63 67 78 88 95 98 102 109 113 114 111 104 102 100 102 103 106 106 100 98 99 97 91 87 84 80 73 67 60 62 60 64 64 63 57 70 79
54 57 60 63 69 76 82 89 94 96 97 98 99 99 103 104 101 98 98 97 96 93 91 86 80 78 74 69 63 61 60 56 64 64 65 61 60 62
42 51 54 56 61 65 68 71 75 79 82 84 86 86 88 86 87 90 89 89 84 80 77 76 74 69 66 63 61 63 62 61 64 69 66 62 60 58
28 36 42 47 51 57 61 65 68 73 74 73 74 76 78 79 80 82 81 79 76 76 74 75 73 63 58 60 64 67 68 66 67 70 67 65 63 60
22 26 29 32 36 41 44 50 52 57 60 64 64 68 65 68 70 72 72 67 58 57 58 62 60 55 56 58 63 68 68 66 71 72 70 69 67 64
26 31 31 31 32 34 36 38 41 44 45 46 50 53 50 52 55 54 52 51 50 47 50 48 45 58 58 59 63 68 68 67 70 76 73 74 75 72
29 33 35 37 34 37 36 35 37 39 40 42 44 45 46 45 39 41 38 39 40 43 41 49 62 63 61 65 71 69 71 70 70 75 78 77 76 74
38 40 41 41 43 41 40 43 42 40 42 45 49 45 42 39 44 40 41 41 38 43 49 60 62 65 68 66 68 69 73 76 77 75 77 77 77 76
48 50 49 48 47 49 50 50 51 49 49 48 49 48 50 52 55 50 50 48 49 49 57 63 64 68 71 72 72 70 74 77 76 77 80 83 82 80
57 60 58 58 55 56 56 56 55 57 59 58 61 62 62 61 60 60 63 64 65 66 63 67 72 71 76 82 83 80 80 83 84 84 84 82 84 83
65 66 68 67 67 64 62 65 63 64 64 62 62 66 63 69 67 72 72 72 78 77 75 71 73 77 81 85 83 86 88 89 90 89 87 87 87 88
69 72 75 77 77 76 76 74 73 75 74 74 76 73 74 73 77 80 83 82 83 86 82 81 80 84 88 92 91 91 85 84 83 92 96 91 92 91
77 78 80 82 83 85 86 87 86 84 83 82 82 85 85 82 83 84 87 90 88 89 88 89 90 88 92 96 96 98 100 95 95 94 95 95 95 95
84 86 87 89 89 91 91 93 95 95 95 95 93 92 91 91 90 89 90 92 97 99 96 98 93 93 93 93 101 106 106 108 107 105 103 100 100 102
85 88 91 93 93 96 99 100 101 101 103 103 104 104 103 102 102 102 102 101 103 103 102 103 104 103 102 103 103 100 97 107 114 112 110 109 109 112
81 82 84 88 93 97 99 100 103 104 106 108 111 113 115 116 116 115 114 112 111 112 111 108 108 108 108 110 109 111 109 110 110 115 117 119 119 119

GFSNE_250_spd_132.txt.gz
Wind_Speed
107 109 114 114 113 108 106 103 100 95 86 87 84 80 71 66 65 70 64 59 61 58 63 66 68 66 66 60 55 51 56 67 55 50 45 50 40 41
98 108 113 120 122 116 113 112 109 102 94 92 89 84 80 75 73 70 69 66 64 64 67 68 70 70 66 64 60 64 69 69 61 56 49 45 45 38
84 96 106 112 119 122 121 116 113 113 105 97 93 90 87 85 80 79 76 74 76 73 73 74 73 75 73 71 76 81 78 75 67 65 51 50 50 39
76 83 91 103 110 117 124 122 120 120 116 105 104 98 93 91 86 86 86 84 85 85 83 85 86 86 84 85 88 86 85 77 72 64 55 57 50 48
69 75 81 89 98 109 117 124 123 118 115 113 113 111 105 104 101 93 92 93 96 97 97 94 96 96 96 95 93 89 87 80 78 75 59 61 54 53
57 66 74 77 85 93 105 113 119 121 119 114 115 117 113 108 107 106 102 100 102 101 106 105 101 100 101 96 95 96 90 84 77 70 65 61 55 52
52 58 63 71 76 83 91 102 112 116 118 118 115 114 116 116 114 110 109 112 108 110 113 112 108 106 106 101 98 91 87 80 75 68 67 58 54 56
42 49 55 64 68 73 80 85 94 102 110 114 116 116 117 118 116 115 117 111 111 114 117 117 112 105 100 97 91 86 84 82 75 70 66 59 56 60
34 39 44 52 58 64 68 74 82 90 100 106 113 116 114 116 115 114 113 128 122 119 122 120 115 109 100 95 93 90 85 78 72 70 67 60 58 60
25 29 32 40 48 54 59 63 70 78 88 93 102 107 110 110 116 116 116 114 110 116 122 123 119 108 102 96 88 83 79 75 72 69 65 59 58 61
16 19 21 26 36 42 47 53 56 63 71 80 88 95 98 102 108 116 120 118 117 114 117 107 93 90 88 81 78 74 70 66 65 64 61 59 60 63
14 13 14 16 20 26 32 38 45 49 55 61 68 75 82 85 89 92 93 93 92 91 92 89 83 81 79 74 70 68 60 52 55 52 53 63 63 64
19 12 15 17 22 25 28 32 37 42 46 52 56 60 63 66 69 73 77 79 82 85 83 79 77 77 75 74 73 71 65 55 53 55 70 68 65 66
26 21 27 28 30 29 24 26 30 36 37 40 43 48 52 55 59 64 66 68 70 70 71 73 73 70 65 60 53 52 51 60 63 65 67 67 69 69
32 29 30 34 37 37 34 39 41 41 41 41 43 43 47 50 54 59 60 61 65 64 66 67 68 66 56 46 47 55 64 63 66 73 65 68 67 71
41 41 37 37 41 42 43 46 46 47 47 47 47 45 47 48 52 56 55 53 57 58 57 56 58 63 62 63 61 63 66 68 69 69 69 71 74 71
53 54 55 50 50 52 51 53 53 54 53 53 54 52 52 50 53 54 55 53 53 54 54 53 55 57 58 62 67 68 66 68 68 71 77 76 78 79
60 60 62 65 64 63 65 62 61 62 62 63 60 60 61 59 60 63 62 60 61 60 59 57 58 65 67 70 70 67 73 73 71 75 77 81 84 83
65 68 69 71 74 74 74 75 74 73 72 71 71 71 69 70 68 69 68 67 68 70 69 71 67 68 76 78 78 79 77 77 78 79 83 84 85 84
74 74 74 76 77 81 83 83 83 82 82 80 81 78 79 77 78 77 77 78 80 80 79 81 82 81 79 79 78 80 84 85 86 86 85 89 91 92
81 81 83 84 85 86 87 90 91 91 91 91 89 88 89 87 88 87 86 88 89 88 86 88 91 90 92 91 89 87 88 93 92 92 94 92 93 95
74 80 85 89 91 93 94 94 96 98 98 99 100 100 100 98 97 98 98 98 97 95 97 98 95 97 99 101 102 100 96 95 98 95 95 94 96 99
75 77 80 83 85 88 92 96 99 98 101 104 105 106 107 109 110 110 109 108 109 109 109 106 106 107 106 107 105 109 109 107 107 106 105 102 102 101

GFSNE_250_spd_138.txt.gz
Wind_Speed
77 80 85 93 97 102 106 115 127 121 115 112 116 108 106 94 95 79 69 69 75 81 74 74 72 71 70 65 66 67 68 65 58 62 62 54 45 41
68 69 74 78 82 89 98 102 106 121 125 121 121 116 116 107 102 90 74 65 79 84 77 77 75 75 75 72 72 71 69 68 68 65 64 66 57 49
63 62 66 70 73 76 81 89 97 102 115 128 123 125 121 115 110 102 98 90 76 79 83 82 80 78 76 76 74 75 75 74 73 72 69 65 62 56
61 61 62 60 62 65 70 77 82 91 100 117 129 134 130 122 116 112 105 103 89 84 83 84 85 86 84 82 81 80 80 78 78 76 72 70 70 64
61 61 57 56 56 57 60 66 70 79 90 101 125 133 136 129 120 118 113 108 101 100 84 81 85 90 89 90 87 87 87 85 81 80 76 76 74 74
53 49 49 48 49 53 55 57 63 70 78 92 109 131 136 139 131 122 120 114 111 107 97 82 88 94 84 86 92 90 86 86 84 83 81 78 78 75
43 44 45 45 47 48 50 52 58 62 68 80 98 109 124 140 143 138 128 123 120 115 106 93 83 95 95 88 84 85 85 86 84 84 82 82 81 82
44 41 36 36 40 44 49 50 51 54 62 70 80 97 109 119 125 128 132 131 125 120 116 117 115 100 90 100 99 89 84 82 81 83 86 86 85 85
30 28 28 29 32 35 39 42 46 51 57 64 69 79 92 107 118 119 120 128 132 130 125 123 123 115 98 97 97 98 94 91 91 89 88 87 88 89
26 23 23 21 25 33 37 38 40 46 52 57 62 69 77 87 102 113 117 122 127 130 132 130 129 126 121 116 107 102 101 105 106 100 98 101 103 102
25 24 23 27 29 30 34 34 38 39 44 50 55 58 66 75 86 95 106 116 121 123 126 129 129 129 128 126 123 116 114 112 107 113 112 110 116 111
27 27 25 24 26 26 30 33 33 34 37 41 45 51 57 63 72 80 88 97 110 118 120 125 125 126 127 129 127 121 120 119 119 116 117 117 113 113
33 31 29 30 26 25 24 21 26 28 29 31 35 39 45 50 58 68 76 84 91 104 114 120 125 127 126 126 128 129 129 124 124 122 122 123 124 124
39 39 34 34 34 29 28 26 23 21 23 27 29 32 36 41 48 55 62 71 80 87 95 107 118 125 128 128 129 130 131 130 128 127 125 124 124 122
45 44 43 40 38 36 36 35 31 31 29 27 29 29 31 34 38 44 50 56 62 71 80 87 95 103 111 120 125 128 128 127 129 126 126 127 125 123
50 53 52 48 47 44 42 39 41 40 38 37 36 37 40 40 42 45 47 50 53 57 64 70 77 83 89 94 99 104 109 112 114 117 117 117 117 115
58 59 59 58 56 53 51 50 49 48 46 46 45 47 48 49 49 49 48 50 53 56 58 61 65 69 74 78 83 86 90 92 95 98 101 103 102 98
57 66 66 66 64 63 61 59 57 57 57 57 56 56 56 57 56 58 57 55 59 60 63 65 66 67 68 70 73 75 76 78 82 84 84 84 84 84
60 63 70 70 71 72 72 72 69 69 67 67 67 66 66 66 67 66 66 66 65 66 68 70 70 70 71 71 72 74 74 76 76 78 79 80 82 82
63 64 67 70 75 77 78 80 82 79 79 79 78 78 77 77 78 78 77 76 75 76 77 77 77 77 76 76 75 76 76 77 76 76 77 78 79 80
63 65 66 67 70 70 72 77 81 84 85 88 89 89 89 87 87 86 87 87 87 87 87 87 87 87 86 85 84 81 81 79 78 77 78 78 77 77
67 68 68 68 69 69 70 74 78 82 88 89 90 92 95 97 98 97 96 95 95 94 96 97 97 96 94 92 92 91 89 88 83 83 81 79 78 75
68 69 70 70 71 72 73 75 77 79 82 84 85 86 89 91 93 96 99 99 99 98 99 100 100 101 101 99 98 98 97 95 94 90 89 86 83 81